Location: Bailleul
(50.3375°N, 2.8513°E)
Time: 18:18:14
(UTC+00:00)

Terra - Pass Details

Date: 31 July 2021
Orbit: 701 x 703 km, 98.2° (Epoch: 17 September)

Event Time Altitude Azimuth Distance (km) Brightness Sun altitude
Exits shadow 20:35:24 11° 123° (ESE) 2,114 3.6 -8.8°
Maximum altitude 20:39:23 31° 64° (ENE) 1,235 2.9 -9.2°
Drops below altitude 10° 20:43:33 10° 3° (N) 2,185 5.0 -9.7°
Sets 20:46:01 0° 353° (N) 3,108 6.1 -10.0°
